Regional Weather Roundup
Issued by NWS Midland/Odessa, TX

Skip options and go directly to product.
Home | Oldest Version | Previous Version | Current Version | All | Text Only | Save Text | Print | Product List | Glossary On

Skip product version selection by date and time.   
969
ASUS44 KMAF 241610
RWRMAF
MIDLAND AREA WEATHER ROUNDUP
NATIONAL WEATHER SERVICE MIDLAND TX
1100 AM CDT SUN JUL 24 2016

...IN SOUTHWEST TEXAS AND SOUTHEAST NEW MEXICO...

CITY           SKY/WX    TMP DP  RH WIND       PRES   REMARKS
ALPINE         SUNNY     88  55  32 S5        30.16F
ANDREWS        FAIR      88  62  42 SE12      30.07S
ARTESIA        SUNNY     86  59  39 E8G15     30.06R
BIG SPRING     SUNNY     87  66  49 S9        30.06S
CARLSBAD       SUNNY     88  57  34 SE7       30.03R
DRYDEN           N/A     88  69  53 SE8       29.98F
FORT STOCKTON  SUNNY     90  62  39 SE12      30.02R
GUAD PASS      SUNNY     85  54  34 SE7       30.19S
HOBBS          SUNNY     86  57  37 SE12      30.09S
MARFA          SUNNY     85  57  38 S8        30.16S
MIDLAND AIRPK  SUNNY     90  63  40 S12G17    30.05S
MIDLAND INTL   SUNNY     90  64  42 SE13      30.04S
ODESSA         SUNNY     89  63  41 S16       30.05S
PECOS          SUNNY     93  57  30 E6        29.98S
PRESIDIO       FAIR      93  57  30 CALM      29.99S
SEMINOLE       SUNNY     88  60  38 S6        30.09S
SNYDER           N/A     87  66  50 S9        30.05S
WINK           SUNNY     89  64  43 SE14      30.00S
$$
...OTHER STATIONS IN TEXAS...

CITY           SKY/WX    TMP DP  RH WIND       PRES   REMARKS
ABILENE        SUNNY     90  70  51 SW10      30.02R
AMARILLO       SUNNY     90  58  33 SW15      30.10R
AUSTIN         MOSUNNY   90  73  57 S9        29.97S
BROWNSVILLE    MOSUNNY   93  77  59 S16       29.94S HX 107
CORPUS CHRISTI PTSUNNY   90  76  63 S12       29.94S HX 101
DALLAS FTW     MOSUNNY   91  70  49 S6        29.98R
DEL RIO        SUNNY     88  71  57 SE9G18    29.94S
EL PASO        MOSUNNY   90  47  22 CALM      30.04R
HOUSTON INT    MOSUNNY   90  72  55 VRB6      29.98S
LUBBOCK        MOSUNNY   90  59  35 SW9       30.08S
SAN ANGELO     SUNNY     91  69  48 S10       30.01S
SAN ANTONIO    MOSUNNY   87  71  58 VRB5      29.99S
WACO           SUNNY     90  72  55 SE8       29.98S
WICHITA FALLS  NOT AVBL
$$
...OTHER LOCATIONS IN NEW MEXICO...

CITY           SKY/WX    TMP DP  RH WIND       PRES   REMARKS
ALAMAGORDO     SUNNY     90  45  20 SE5       30.07S
ALBUQUERQUE    MOSUNNY   84  51  31 N7        30.18S
CANNON AFB     SUNNY     87  56  34 S7        30.14R
CLOVIS         SUNNY     88  57  35 S15       30.14S
HOLLOMAN AFB     N/A    N/A N/A N/A SW9       30.04
ROSWELL        SUNNY     87  55  33 SE10      30.07S
RUIDOSO          N/A     81  41  24 SE9       30.31R
SANTA FE       CLOUDY    81  51  35 N12       30.27R
TRUTH OR CONSE SUNNY     90  45  21 VRB3      30.11S
TUCUMCARI      SUNNY     91  52  26 S12       30.10S
$$

USA.gov is the U.S. government's official web portal to all federal, state and local government web resources and services.